Regional Weather Roundup
Issued by NWS

Home | Current Version | Previous Version | Text Only | Print | Product List | Glossary Off
Versions: 1 2 3 4 5 6 7 8 9 10 11 12 13 14 15 16 17 18 19 20 21 22 23 24 25 26 27 28 29 30 31 32 33 34 35 36 37 38 39 40 41 42 43 44 45 46 47 48 49 50

000
ASUS43 KTOP 201559
RWRKS

WEATHER ROUNDUP FOR KANSAS
NATIONAL WEATHER SERVICE GOODLAND KS
1100 AM CDT SUN AUG 20 2017

NOTE:  "FAIR" INDICATES FEW OR NO CLOUDS BELOW 12,000 FEET WITH NO
SIGNIFICANT WEATHER AND/OR OBSTRUCTIONS TO VISIBILITY.

KSZ001>006-013>018-027>032-041>047-201700-
NORTHWEST KANSAS

CITY           SKY/WX    TMP DP  RH WIND       PRES   REMARKS
GOODLAND       SUNNY     79  58  48 VRB3      29.98S
HAYS           MOSUNNY   87  67  51 S13       29.93S
HILL CITY      SUNNY     88  64  44 S9        29.92R
RUSSELL        SUNNY     85  67  54 SW15      29.92S
$$

KSZ061>065-074>080-084>089-201700-
SOUTHWEST KANSAS

CITY           SKY/WX    TMP DP  RH WIND       PRES   REMARKS
DODGE CITY     SUNNY     86  64  47 SW15      29.98S
ELKHART          N/A     80  61  52 S13         N/A
GARDEN CITY    SUNNY     81  65  58 S15       29.98R
GREAT BEND     SUNNY     85  69  58 S13       29.94F
LIBERAL        SUNNY     84  66  54 SW16      30.01R
$$

KSZ066>073-081>083-090>101-201700-
SOUTHEAST KANSAS

CITY           SKY/WX    TMP DP  RH WIND       PRES   REMARKS
CHANUTE        SUNNY     85  73  67 E8        30.02F
COFFEYVILLE    SUNNY     88  76  67 VRB7      30.00S HX  99
HUTCHINSON     CLOUDY    87  69  54 S12       29.96R
MEDICINE LODGE   N/A     86  68  54 S9        29.95F
NEWTON         MOSUNNY   86  71  60 S13       29.99S
PARSONS        SUNNY     88  74  63 S6        30.02F HX  96
WICHITA INTL   CLOUDY    87  69  54 S14       29.97S
WICHITA JABRA  CLOUDY    85  71  63 S12       29.98S
WINFIELD       SUNNY     86  72  62 S9        30.00S
$$

KSZ007>012-019>026-033>040-048>060-102>105-201700-
NORTHEAST KANSAS

CITY           SKY/WX    TMP DP  RH WIND       PRES   REMARKS
CONCORDIA      SUNNY     82  72  71 S15       29.93S
EMPORIA        MOSUNNY   83  69  62 S15       30.00R
LAWRENCE       SUNNY     80  69  69 SE16      30.00F
MANHATTAN      SUNNY     84  72  67 SE12      29.95F
OLATHE IND     SUNNY     80  68  66 SE12      30.03F
OLATHE EXE     SUNNY     78  69  73 SE13      30.02F
SALINA         SUNNY     90  69  50 S15       29.93F
TOPEKA BILLARD SUNNY     80  70  71 SE14      29.99S
TOPEKA FORBES  SUNNY     82  69  64 SE16      30.00R
$$




USA.gov is the U.S. government's official web portal to all federal, state and local government web resources and services.